Погода в Нижней Полтавке

Россия / Амурская область     49°42′47″N   128°14′13″E
темп.,
°C
ветер,
м/с
пор.,
м/с
влажн.,
%
обл.,
%
осадки,
мм/ч
давл.,
гПа
погр.,
м
20 апреля, вт
вт2000:000сз814380 0.0 10151228
03:000сз918390 0.0 10141509
06:00−1зсз1018360 0.0 10151420
09:00+2сз1118220 0.0 10151707
12:00+7сз915170 0.0 10161894
15:00+10сз812130 0.0 10151917
18:00+11зсз48230 0.0 1014557
21:00+6з33375 0.0 101525
21 апреля, ср
ср2100:00+5ююз33405 0.0 101537
03:00+4ююв34485 0.0 101542
06:00+3юв34491 0.0 101549
09:00+10ю4835100 0.0 1015412
12:00+18юз792639 0.0 10141042
15:00+21ююз682174 0.0 10121409
18:00+20ююз48245 0.0 1011217
21:00+14ююв48345 0.0 101299
22 апреля, чт
чт2200:00+12юв410381 0.0 1012131
03:00+11юв47447 0.0 101194
06:00+10юв49517 0.0 1011135
09:00+18ююз7123641 0.0 1012822
12:00+23юз91329100 0.1 10121516
15:00+23юз101328100 0.1 10131778
18:00+20юз71136100 0.0 10151100
21:00+16з41152100 0.0 1019271
23 апреля, пт
пт2300:00+12с71155100 0.0 1021459
03:00+8с71058100 0.0 1025692
06:00+4ссз61061100 0.1 1027565
09:00+4с6944100 0.5 1029790
12:00+5ссз6837100 0.0 1030966
15:00+9с792496 0.0 10281606
18:00+8с7102194 0.0 10291706
21:00+5с6122372 0.0 1030506
24 апреля, сб
сб2400:00+3ссз714294 0.0 1032693
03:000сз48430 0.0 1033206
06:00−1сз411470 0.0 1033305
09:00+6сз713290 0.0 10311770
12:00+9ссз912245 0.0 10282328
15:00+11ссз91321100 0.0 10262990
18:00+11ссз7132610 0.0 10242998
21:00+8ссз612345 0.0 1025441